NATO 4B

Last updated on Tue Nov 08 2016 01:18:57 GMT+0000 (Coordinated Universal Time)

1 22921U 93076A 16310.58333333 -.00000119 00000-0 00000+0 0 9994 2 22921 12.1105 25.2920 0004991 227.7953 23.9841 0.98291557 83897
UTC large
Height (km)
Speed (km/s)
/
Latitude / Longitude
Inclination (degrees)
Orbital Period (minutes)
Azimuth
Elevation
Range (km)
Doppler Factor

Next 0 passes for location: London (51.5072 / 0.1276)

Sorry there are no passes over London.